Location: Corocito
(10.1894°N, 67.0986°W)
Time: 11:59:04
(UTC+00:00)

Tsikada Rocket - Pass Details

Date: 29 May 2024
Orbit: 959 x 1007 km, 82.9° (Epoch: 16 June)

Event Time Altitude Azimuth Distance (km) Brightness Sun altitude
Rises 23:38:45 0° 172° (S) 3,632 6.7 -12.7°
Reaches altitude 10° 23:41:18 10° 168° (SSE) 2,688 6.0 -13.2°
Maximum altitude 23:47:15 53° 92° (E) 1,169 4.1 -14.6°
Drops below altitude 10° 23:53:15 10° 17° (NNE) 2,709 6.4 -15.9°
Sets 23:55:49 0° 12° (NNE) 3,663 7.2 -16.5°
